JAL50 OMAA-RJTT

Flight info

Callsign JAL50
Flight time N/A
Altitude 35000
Route KANIP N318 GEVED N881 RASKI L639 BPL A791 CEA B465 CTG A599 LINSO/K0937S1065 A599 SGM A581 WHA R343 PK W116 JTN G327 LAMEN/N0498F350 A593 SADLI Y590 BEDAR Y591 FUE Y23 KASTE Y81 ISEBI Y43 MENUR Y21 AKSEL
Aircraft A35K/H-SDE2E3GHIJ3J4J5LM1ORWXY/LB1D1

Departure

Time 2026-05-03 23:30
Airport Zayed International Airport (OMAA)

Arrival

Time N/A
Airport Tokyo Haneda International Airport (RJTT)
Time Latitude Longitude Altitude Speed Heading
2026-05-03 22:50 24.44406 54.64383 58 ft 0 kts 39°
2026-05-03 23:13 24.44399 54.64377 67 ft 4 kts 46°
2026-05-03 23:14 24.44382 54.64354 58 ft 4 kts 63°
2026-05-03 23:14 24.44374 54.64326 58 ft 4 kts 88°
2026-05-03 23:14 24.44378 54.64301 58 ft 2 kts 127°
2026-05-03 23:14 24.44375 54.64306 58 ft 0 kts 128°
2026-05-03 23:20 24.44375 54.64307 67 ft 0 kts 128°
2026-05-03 23:20 24.44362 54.64324 58 ft 4 kts 128°
2026-05-03 23:20 24.44342 54.64353 59 ft 5 kts 128°
2026-05-03 23:21 24.44316 54.64389 58 ft 7 kts 128°
2026-05-03 23:21 24.44285 54.64432 59 ft 8 kts 128°
2026-05-03 23:21 24.44250 54.64482 58 ft 9 kts 128°
2026-05-03 23:21 24.44208 54.64540 57 ft 10 kts 128°
2026-05-03 23:22 24.44111 54.64677 59 ft 13 kts 128°
2026-05-03 23:22 24.44053 54.64754 57 ft 14 kts 137°
2026-05-03 23:22 24.43969 54.64757 59 ft 9 kts 206°
2026-05-03 23:23 24.43934 54.64738 58 ft 6 kts 189°
2026-05-03 23:23 24.43896 54.64762 58 ft 8 kts 134°
2026-05-03 23:23 24.43854 54.64814 58 ft 10 kts 129°
2026-05-03 23:23 24.43808 54.64878 56 ft 12 kts 128°
2026-05-03 23:24 24.43756 54.64951 56 ft 13 kts 128°
2026-05-03 23:24 24.43699 54.65030 56 ft 14 kts 128°
2026-05-03 23:24 24.43637 54.65118 56 ft 15 kts 128°
2026-05-03 23:24 24.43571 54.65211 56 ft 16 kts 127°
2026-05-03 23:25 24.43500 54.65310 58 ft 17 kts 128°
2026-05-03 23:25 24.43426 54.65413 56 ft 18 kts 128°
2026-05-03 23:25 24.43349 54.65523 55 ft 19 kts 128°
2026-05-03 23:25 24.43267 54.65638 55 ft 20 kts 128°
2026-05-03 23:26 24.43182 54.65758 59 ft 20 kts 128°
2026-05-03 23:26 24.43093 54.65884 54 ft 21 kts 128°
2026-05-03 23:26 24.43001 54.66014 55 ft 22 kts 127°
2026-05-03 23:26 24.42907 54.66148 54 ft 22 kts 128°
2026-05-03 23:27 24.42811 54.66284 54 ft 23 kts 128°
2026-05-03 23:27 24.42712 54.66423 53 ft 23 kts 128°
2026-05-03 23:27 24.42610 54.66566 54 ft 24 kts 128°
2026-05-03 23:27 24.42505 54.66713 54 ft 25 kts 128°
2026-05-03 23:28 24.42429 54.66820 52 ft 14 kts 128°
2026-05-03 23:28 24.42366 54.66857 53 ft 9 kts 188°
2026-05-03 23:28 24.42304 54.66815 53 ft 15 kts 217°
2026-05-03 23:28 24.42219 54.66739 52 ft 16 kts 229°
2026-05-03 23:29 24.42223 54.66636 52 ft 14 kts 303°
2026-05-03 23:29 24.42264 54.66577 53 ft 10 kts 308°
2026-05-03 23:29 24.42401 54.66386 53 ft 61 kts 308°
2026-05-03 23:29 24.42778 54.65855 56 ft 117 kts 308°
2026-05-03 23:30 24.43383 54.65008 60 ft 164 kts 308°
2026-05-03 23:30 24.44128 54.63962 563 ft 159 kts 308°
2026-05-03 23:30 24.44775 54.63045 1234 ft 147 kts 308°
2026-05-03 23:30 24.45419 54.62129 1396 ft 163 kts 308°
2026-05-03 23:31 24.46166 54.61112 1590 ft 178 kts 310°
2026-05-03 23:31 24.47001 54.60053 1802 ft 190 kts 311°
2026-05-03 23:31 24.47924 54.58954 2048 ft 203 kts 313°
2026-05-03 23:31 24.48894 54.57732 2198 ft 223 kts 309°
2026-05-03 23:32 24.49908 54.56330 2360 ft 241 kts 307°
2026-05-03 23:32 24.50907 54.54868 2976 ft 239 kts 305°
2026-05-03 23:32 24.51879 54.53393 3582 ft 239 kts 305°
2026-05-03 23:32 24.52855 54.51908 4146 ft 241 kts 305°
2026-05-03 23:33 24.53841 54.50414 4727 ft 242 kts 305°
2026-05-03 23:33 24.54840 54.48925 5293 ft 242 kts 305°
2026-05-03 23:33 24.55852 54.47452 5863 ft 242 kts 306°
2026-05-03 23:33 24.56893 54.45997 6425 ft 242 kts 307°
2026-05-03 23:34 24.57970 54.44569 6973 ft 243 kts 308°
2026-05-03 23:34 24.59092 54.43176 7538 ft 244 kts 310°
2026-05-03 23:34 24.60505 54.42123 8033 ft 253 kts 338°
2026-05-03 23:34 24.62288 54.42041 8529 ft 267 kts
2026-05-03 23:35 24.63993 54.42904 8683 ft 274 kts 30°
2026-05-03 23:35 24.65563 54.44119 8788 ft 279 kts 31°
2026-05-03 23:35 24.67133 54.45369 8789 ft 278 kts 30°
2026-05-03 23:35 24.68737 54.46555 8799 ft 278 kts 28°
2026-05-03 23:36 24.70365 54.47701 8788 ft 277 kts 25°
2026-05-03 23:36 24.72046 54.48684 8778 ft 276 kts 22°
2026-05-03 23:36 24.73554 54.50030 8779 ft 285 kts 51°
2026-05-03 23:36 24.74526 54.51938 8780 ft 288 kts 62°
2026-05-03 23:37 24.75353 54.53957 8779 ft 290 kts 63°
2026-05-03 23:37 24.76163 54.55983 8780 ft 290 kts 63°
2026-05-03 23:37 24.76974 54.58009 8780 ft 290 kts 63°
2026-05-03 23:37 24.77791 54.60042 8898 ft 294 kts 63°
2026-05-03 23:38 24.78629 54.62129 9131 ft 307 kts 63°
2026-05-03 23:38 24.79509 54.64331 9664 ft 312 kts 63°
2026-05-03 23:38 24.80137 54.66602 10173 ft 320 kts 82°
2026-05-03 23:38 24.79888 54.69023 10736 ft 322 kts 108°
2026-05-03 23:39 24.79100 54.71337 11344 ft 323 kts 112°
2026-05-03 23:39 24.78254 54.73640 11968 ft 325 kts 111°
2026-05-03 23:39 24.77412 54.75953 12584 ft 327 kts 111°
2026-05-03 23:39 24.76506 54.78247 13184 ft 329 kts 118°
2026-05-03 23:40 24.75046 54.80170 13708 ft 330 kts 144°
2026-05-03 23:40 24.72980 54.81242 14048 ft 335 kts 171°
2026-05-03 23:40 24.70643 54.81223 14246 ft 340 kts 198°
2026-05-03 23:40 24.68483 54.80152 14467 ft 346 kts 213°
2026-05-03 23:41 24.66237 54.79046 14677 ft 361 kts 203°
2026-05-03 23:41 24.63805 54.78188 14883 ft 375 kts 195°
2026-05-03 23:41 24.61159 54.78010 15065 ft 391 kts 174°
2026-05-03 23:41 24.58524 54.78899 15245 ft 405 kts 153°
2026-05-03 23:42 24.56235 54.80751 15438 ft 415 kts 136°
2026-05-03 23:42 24.54154 54.83008 15643 ft 424 kts 135°
2026-05-03 23:42 24.52051 54.85318 15831 ft 433 kts 135°
2026-05-03 23:42 24.49882 54.87658 16000 ft 441 kts 136°
2026-05-03 23:43 24.47677 54.90014 16244 ft 446 kts 136°
2026-05-03 23:43 24.45421 54.92409 16569 ft 450 kts 136°
2026-05-03 23:43 24.43159 54.94800 16871 ft 453 kts 136°
2026-05-03 23:43 24.40893 54.97191 17192 ft 456 kts 136°
2026-05-03 23:44 24.38615 54.99592 17518 ft 458 kts 136°
2026-05-03 23:44 24.36286 55.02043 17879 ft 460 kts 136°
2026-05-03 23:44 24.33976 55.04483 18179 ft 463 kts 135°
2026-05-03 23:44 24.31880 55.07179 18454 ft 465 kts 123°
2026-05-03 23:45 24.30210 55.10206 18759 ft 466 kts 118°
2026-05-03 23:45 24.28626 55.13316 19049 ft 468 kts 118°
2026-05-03 23:45 24.27041 55.16434 19354 ft 470 kts 118°
2026-05-03 23:45 24.25444 55.19564 19643 ft 472 kts 118°
2026-05-03 23:46 24.23847 55.22683 19944 ft 474 kts 118°
2026-05-03 23:46 24.22232 55.25828 20246 ft 476 kts 118°
2026-05-03 23:46 24.20588 55.29026 20543 ft 478 kts 118°
2026-05-03 23:46 24.18953 55.32201 20880 ft 480 kts 118°
2026-05-03 23:47 24.17421 55.35393 21220 ft 481 kts 115°
2026-05-03 23:47 24.16008 55.38768 21540 ft 483 kts 112°
2026-05-03 23:47 24.14689 55.42171 21860 ft 485 kts 111°
2026-05-03 23:47 24.13403 55.45598 22170 ft 488 kts 111°
2026-05-03 23:48 24.12120 55.49033 22483 ft 490 kts 111°
2026-05-03 23:48 24.10818 55.52495 22807 ft 492 kts 111°
2026-05-03 23:48 24.09499 55.55970 23077 ft 496 kts 112°
2026-05-03 23:48 24.08164 55.59456 23381 ft 499 kts 112°
2026-05-03 23:49 24.06810 55.62970 23644 ft 501 kts 112°
2026-05-03 23:49 24.05439 55.66478 23883 ft 504 kts 114°
2026-05-03 23:49 24.03906 55.69935 24132 ft 506 kts 117°
2026-05-03 23:49 24.02277 55.73290 24373 ft 509 kts 118°
2026-05-03 23:50 24.00544 55.76756 24640 ft 512 kts 118°
2026-05-03 23:50 23.99414 55.79013 24820 ft 513 kts 118°
2026-05-03 23:50 23.97158 55.83577 25160 ft 517 kts 118°
2026-05-03 23:50 23.95464 55.87059 25404 ft 521 kts 117°
2026-05-03 23:51 23.93768 55.90580 25692 ft 524 kts 117°
2026-05-03 23:51 23.92077 55.94112 25993 ft 526 kts 117°
2026-05-03 23:51 23.90380 55.97663 26287 ft 529 kts 117°
2026-05-03 23:51 23.88677 56.01227 26587 ft 532 kts 117°
2026-05-03 23:52 23.86950 56.04840 26883 ft 535 kts 117°
2026-05-03 23:52 23.85230 56.08432 27200 ft 537 kts 117°
2026-05-03 23:52 23.83484 56.12073 27516 ft 540 kts 117°
2026-05-03 23:52 23.81744 56.15696 27817 ft 542 kts 118°
2026-05-03 23:53 23.79990 56.19348 28066 ft 546 kts 118°
2026-05-03 23:53 23.78216 56.23038 28333 ft 548 kts 118°
2026-05-03 23:53 23.77040 56.25482 28507 ft 550 kts 118°
2026-05-03 23:53 23.74646 56.30452 28873 ft 553 kts 118°
2026-05-03 23:54 23.72861 56.34156 29223 ft 554 kts 118°
2026-05-03 23:54 23.71061 56.37882 29569 ft 554 kts 118°
2026-05-03 23:54 23.69261 56.41609 29906 ft 554 kts 118°
2026-05-03 23:54 23.67469 56.45320 30270 ft 552 kts 118°
2026-05-03 23:55 23.66285 56.47771 30527 ft 550 kts 118°
2026-05-03 23:55 23.64502 56.51459 30853 ft 549 kts 118°
2026-05-03 23:55 23.62721 56.55140 31162 ft 549 kts 118°
2026-05-03 23:55 23.60939 56.58818 31458 ft 548 kts 118°
2026-05-03 23:56 23.59154 56.62500 31686 ft 549 kts 118°
2026-05-03 23:56 23.57371 56.66177 31982 ft 549 kts 118°
2026-05-03 23:56 23.55590 56.69845 32307 ft 547 kts 118°
2026-05-03 23:56 23.53808 56.73513 32630 ft 546 kts 119°
2026-05-03 23:57 23.52034 56.77162 32899 ft 545 kts 119°
2026-05-03 23:57 23.50265 56.80796 33199 ft 544 kts 119°
2026-05-03 23:57 23.48496 56.84428 33548 ft 542 kts 119°
2026-05-03 23:57 23.46723 56.88066 33764 ft 542 kts 119°
2026-05-03 23:58 23.44954 56.91694 33954 ft 543 kts 119°
2026-05-03 23:58 23.43180 56.95327 34178 ft 543 kts 119°
2026-05-03 23:58 23.41411 56.98947 34416 ft 541 kts 119°
2026-05-03 23:58 23.39647 57.02556 34712 ft 538 kts 119°
2026-05-03 23:59 23.37889 57.06152 34861 ft 540 kts 119°
2026-05-03 23:59 23.36134 57.09793 34886 ft 544 kts 118°
2026-05-03 23:59 23.32785 57.17186 34875 ft 546 kts 116°
2026-05-04 00:00 23.29481 57.24612 34906 ft 545 kts 116°
2026-05-04 00:00 23.26144 57.32016 34895 ft 545 kts 117°
2026-05-04 00:01 23.22787 57.39409 34877 ft 545 kts 117°
2026-05-04 00:01 23.19419 57.46802 34898 ft 546 kts 117°
2026-05-04 00:02 23.16069 57.54141 34887 ft 546 kts 117°
2026-05-04 00:02 23.12688 57.61539 34888 ft 545 kts 117°
2026-05-04 00:03 23.09311 57.68918 34889 ft 545 kts 117°
2026-05-04 00:03 23.05930 57.76294 34871 ft 545 kts 116°
2026-05-04 00:04 23.02855 57.83793 34862 ft 545 kts 106°
2026-05-04 00:04 23.02036 57.87810 34855 ft 544 kts 95°
2026-05-04 00:04 23.01778 57.91893 34850 ft 542 kts 90°
2026-05-04 00:05 23.01702 58.00093 34849 ft 544 kts 88°
2026-05-04 00:05 23.01762 58.08290 34838 ft 544 kts 88°
2026-05-04 00:06 23.01798 58.16493 34829 ft 544 kts 88°
2026-05-04 00:06 23.01798 58.24698 34827 ft 543 kts 88°
2026-05-04 00:07 23.01782 58.32908 34817 ft 542 kts 88°
2026-05-04 00:07 23.01791 58.41091 34810 ft 542 kts 86°
2026-05-04 00:08 23.02066 58.49273 34815 ft 541 kts 85°
2026-05-04 00:08 23.02410 58.57421 34815 ft 541 kts 85°
2026-05-04 00:09 23.02713 58.65586 34803 ft 542 kts 86°
2026-05-04 00:09 23.02983 58.73755 34783 ft 542 kts 86°
2026-05-04 00:10 23.03241 58.81952 34764 ft 542 kts 86°
2026-05-04 00:10 23.03497 58.90123 34765 ft 542 kts 86°
2026-05-04 00:11 23.03751 58.98297 34765 ft 542 kts 86°
2026-05-04 00:11 23.04001 59.06491 34770 ft 542 kts 86°
2026-05-04 00:12 23.04238 59.14675 34765 ft 542 kts 86°
2026-05-04 00:12 23.04473 59.22857 34743 ft 542 kts 86°
2026-05-04 00:13 23.04705 59.31039 34726 ft 542 kts 86°
2026-05-04 00:13 23.04930 59.39205 34718 ft 542 kts 86°
2026-05-04 00:14 23.05073 59.47367 34723 ft 542 kts 87°
2026-05-04 00:14 23.05180 59.55562 34707 ft 542 kts 87°
2026-05-04 00:15 23.05291 59.63750 34710 ft 542 kts 87°
2026-05-04 00:15 23.05407 59.71874 34716 ft 541 kts 87°
2026-05-04 00:16 23.05522 59.80087 34713 ft 540 kts 87°
2026-05-04 00:16 23.05632 59.88194 34719 ft 540 kts 87°
2026-05-04 00:17 23.05734 59.96357 34722 ft 541 kts 86°
2026-05-04 00:17 23.05835 60.04528 34725 ft 541 kts 86°
2026-05-04 00:18 23.05933 60.12692 34723 ft 541 kts 87°
2026-05-04 00:18 23.06026 60.20864 34727 ft 542 kts 86°
2026-05-04 00:19 23.06114 60.29035 34717 ft 542 kts 86°
2026-05-04 00:19 23.06198 60.37242 34729 ft 542 kts 86°
2026-05-04 00:20 23.06278 60.45431 34727 ft 542 kts 86°
2026-05-04 00:20 23.06352 60.53622 34729 ft 543 kts 86°
2026-05-04 00:21 23.06423 60.61817 34727 ft 543 kts 86°
2026-05-04 00:21 23.06491 60.70012 34726 ft 543 kts 86°
2026-05-04 00:22 23.06555 60.78209 34730 ft 543 kts 86°
2026-05-04 00:22 23.06616 60.86403 34718 ft 543 kts 86°
2026-05-04 00:23 23.06672 60.94607 34730 ft 543 kts 86°
2026-05-04 00:23 23.06724 61.02799 34718 ft 543 kts 86°
2026-05-04 00:24 23.06771 61.10993 34731 ft 543 kts 86°
2026-05-04 00:24 23.06814 61.19188 34728 ft 543 kts 86°
2026-05-04 00:25 23.06853 61.27393 34730 ft 543 kts 86°